Погода в Эльтоне

Погода в Эльтоне : погода сейчас, прогноз погоды и архив. Всё, что Вы хотите узнать о погоде в Эльтоне!

Хотите узнать прогноз погоды в Эльтоне? Тогда Вам сюда: Погода в Эльтоне

Поиск расширенной информации на нашем сайте:

Другие новости

Новости СМИ2

Главная страница сайта

Новости сайта

03.07.2017

Напоминаем, что на нашем специализированном сайте Метеоцентр.Азия вы можете получить высокодетализированные автоматические прогнозы погоды по пунктам России, СНГ и мира в авиационном формате (включающие направление и скорость ветра, видимость, явления погоды, количество и форму облачности, нижнюю и верхнюю границу облачности).


Погода в Эльтоне - сегодня

Время (UTC), дата Ветер
(°,м/с) 
Видим.   Явления Облачность Т
(°С)
Тd
(°С)
f(%) Тe
(°С)
Pmin
(гПа)
dP
(гПа)
Po
(мм)
O2
(г/м3)
Тmin Tmax R s Состояние
почвы
06 15.06.18 250 (З) 20000 м    ясно 
+27.1 +8.1 30 +27  1011.9  0.3  758  277           
09 15.06.18 250 (З) 20000 м    1/1 1000 м 
[Cu hum]
+30.7 +4.7 19 +31  1010.9  -0.9  758  274           
12 15.06.18 260 (З) 20000 м    3/3 1000 м 
[Cu hum]
+32.4 +1.1 14 +32  1010.1  -0.8  757  273           
15 15.06.18 290 (З) 20000 м    3/3 1000 м 
[Cu med, cong]
+32.5 -0.1 12 +33  1009.5  -0.6  757  272    +33.2       
18 15.06.18 040 (СВ) 8-13{15}  20000 м    3/0 верхняя 
[Ci fib]
+24.9 +8.7 36 +25  1010.7  1.2  758  278           
21 15.06.18 050 (СВ) 7-12{14}  20000 м    ясно 
+19.4 +8.4 49 +19  1011.5  0.8  758  284           
00 16.06.18 040 (СВ) 6-10{12}  20000 м    3/0 средняя 
[Ac trans]
+17.2 +8.1 55 +17  1012.1  0.5  759  286           
06 16.06.18 050 (СВ) 5{12}  20000 м    3/0 средняя, верхняя 
[Ac trans|Ci fib]
+23.5 +4.6 29 +24  1013.8  1.1  760  281           
09 16.06.18 050 (СВ) 5{11}  20000 м    6/0 средняя 
[Ac trans]
+25.8 +2.5 22 +26  1013.9  0.1  760  279           
12 16.06.18 040 (СВ) 4-10{11}  20000 м    5/0 средняя, верхняя 
[Ac trans|Ci]
+27.6 -1.4 15 +28  1013.2  -0.6  759  278           
15 16.06.18 020 (С) 5{11}  20000 м    ясно 
+25.9 -4.5 13 +26  1013.1  -0.1  759  280    +27.7       
18 16.06.18 030 (СВ) 4{10}  20000 м    ясно 
+19.8 -3.8 20 +20  1015.1  761  286           
21 16.06.18 040 (СВ) 20000 м    ясно 
+15.7 -1.7 30 +16  1015.6  0.5  761  290           
00 17.06.18 030 (СВ) 20000 м    ясно 
+13.2 -0.2 40 +13  1015.9  0.3  761  293           
03 17.06.18 040 (СВ) 20000 м    ясно 
+16.3 -0.4 32 +16  1016.1  0.2  762  290  +12.1        сухая 
06 17.06.18 030 (СВ) 20000 м    ясно 
+22.4 -0.7 21 +22  1015.7  -0.4  761  284           
09 17.06.18 020 (С) 20000 м    ясно 
+25.3 -3.3 15 +25  1014.5  -1.2  760  281           
12 17.06.18 360 (С) 20000 м    ясно 
+27.1 -3.2 13 +27  1013.2  -1.3  759  279           
15 17.06.18 350 (С) 20000 м    ясно 
+26.6 -5 12 +27  1012.5  -0.8  759  279    +27.4       
18 17.06.18 020 (С) 20000 м    ясно 
+21.8 -2.8 19 +22  1013.3  0.8  759  284           
21 17.06.18 040 (СВ) 20000 м    ясно 
+18.6 -1.7 25 +19  1013.1  -0.2  759  287           
00 18.06.18 050 (СВ) 20000 м    ясно 
+16.5 -1 30 +17  1012.9  -0.2  759  289           
03 18.06.18 тихо ()   20000 м    ясно 
+19.8 -1.3 24 +20  1013.2  0.3  759  285  +15.6        сухая 
06 18.06.18 030 (СВ) 20000 м    ясно 
+26 -1 17 +26  1012.7  -0.5  759  279           
09 18.06.18 020 (С) 3{12}  20000 м    ясно 
+28.2 -2.1 14 +28  1011.8  -0.9  758  277           
Время (UTC), дата Ветер
(°,м/с) 
Видим.   Явления Облачность Т
(°С)
Тd
(°С)
f(%) Тe
(°С)
Pmin
(гПа)
dP
(гПа)
Po
(мм)
O2
(г/м3)
Тmin Tmax R s Состояние
почвы

Для получения пояснительной информации подведите курсор к названию столбца.

ПОГОДА в Эльтоне - архив

Всё, что Вы хотите узнать о погоде в Эльтоне - удобно и подробно!

Выберите нужную дату (начиная с 1 января 2015* года) и нажмите кнопку "Найти".
Будут отображены архивные сводки погоды по пункту Эльтон, начиная с указанной даты.


Отображать данные в формате CSV (для использования в таблицах Excel)


Внимание! Наш архив погоды предназначен исключительно для личного некоммерческого использования в познавательных целях. Если Вам необходимы официальные справки о состоянии погоды (для производственных, юридических, коммерческих и т.п. целей), обращайтесь в органы Росгидромета.

*Примечание: данная дата относится к архиву по метеостанциям СССР (Россия, СНГ, Балтия).
Архив по метеостанциям Зарубежной Европы и Азии (кроме Китая) хранится 10 дней, по другим регионам земного шара (Китай, Африка, Америка, Австралия, Океания) - 1 день.

Эльтон - район местоположения метеостанции


Название, широта, долгота, высота метеостанции:
Эльтон 49.1°ш. 46.9°д. 6 м над ур. моря [Российская Федерация]

Дополнительная информация

В oтличие oт бoльшинства пoгoдных сайтoв мы публикуем пoдрoбную метеoинфoрмацию в детальнoм прoфессиoнальнoм фoрмате.

Характеристики температуры и влажнoсти вoздуха измеряются на высoте 2 м в тени вдали oт зданий и деревьев.
Скoрoсть ветра измеряется на высoте 10 м (на урoвне рoста челoвека скoрoсть ветра ниже в 1.5-2 раза). Если метеoстанция нахoдится в гoрoде или в лесу, тo скoрoсть ветра занижена на 2-4 м/с пo сравнению с oткрытым местoм. Скoрoсть ветра над акватoриями крупных рек и oзёр, а также на вершинах хoлмoв на 2-5 м/с выше, чем в oбычных услoвиях.
Атмoсфернoе давление в разных тoчках местнoсти мoжет значительнo oтличаться oт давления на метеoстанции, в зависимoсти oт услoвий рельефа (при пoдъёме на 10 м давление пoнижается примернo на 1 мм рт.ст.).